GFSFLT1_sfc_wetblb_021.txt.gz
Wetbulb
30.88 30.52 29.89 28.89 28.30 27.60 27.36 27.26 27.66 27.70 27.38 27.08 26.36 26.41 25.64 24.79 24.45 24.26 24.47 24.93 24.86 24.64 24.65 24.99 25.16 25.08 24.75 24.91 25.17 24.23 24.49 26.02
30.06 29.99 29.91 29.09 28.29 27.61 27.43 26.96 26.38 26.74 26.00 25.65 25.05 24.95 25.16 24.41 23.81 23.98 24.07 24.38 24.53 24.59 24.05 23.71 23.50 23.73 23.28 23.29 23.80 23.49 24.00 24.45
30.43 28.93 28.45 28.35 27.77 27.02 26.31 26.00 26.05 25.76 24.80 25.14 24.53 24.39 23.84 23.57 23.79 23.93 23.71 24.29 24.21 24.38 23.82 23.28 23.08 22.83 21.98 22.15 22.56 22.00 22.50 23.71
27.61 27.05 26.64 26.01 25.64 25.58 25.74 25.83 26.27 25.34 24.82 24.59 24.33 23.45 23.20 23.46 23.90 23.82 23.52 23.12 23.01 23.37 22.39 22.30 22.38 22.34 22.25 22.06 22.08 22.06 22.72 23.33
25.08 25.24 25.37 24.82 24.65 24.25 24.52 25.34 25.65 24.71 24.43 23.70 23.14 23.06 22.73 23.16 22.61 22.21 22.16 21.16 20.71 20.70 20.70 20.79 21.07 21.50 21.86 22.42 22.45 22.69 23.25 23.54
26.81 25.13 23.80 23.84 24.15 24.07 24.11 24.55 24.44 23.56 23.72 23.23 23.04 22.79 22.11 21.60 21.26 20.68 20.13 19.70 19.42 19.02 18.86 19.03 19.50 21.34 21.05 21.43 20.80 20.48 20.50 21.50
25.54 25.62 25.11 24.95 25.01 25.01 24.57 24.28 24.23 23.50 21.99 21.64 21.27 21.20 20.61 19.67 18.73 18.22 17.85 17.12 16.95 16.50 16.18 15.69 18.09 20.99 21.99 21.54 19.25 19.47 19.15 18.47
25.86 25.82 25.80 24.97 26.16 24.39 24.16 23.96 20.87 19.60 16.95 17.14 18.47 17.71 17.00 16.34 15.83 15.29 14.30 14.48 13.74 13.69 13.65 12.99 13.38 18.22 20.34 20.45 17.82 16.65 15.87 16.05
25.35 24.91 25.13 24.85 24.01 23.73 23.41 20.91 19.69 17.28 14.92 15.90 16.23 13.79 13.88 13.09 12.17 12.05 12.03 11.38 10.96 10.84 10.54 10.60 12.19 16.89 17.86 18.16 16.01 14.77 14.48 14.37
25.57 24.99 23.57 23.34 23.12 21.83 20.03 19.63 18.15 17.18 16.83 14.95 13.28 10.65 10.84 7.43 8.53 9.45 8.90 8.30 7.49 9.37 8.54 7.32 7.80 13.70 15.81 16.18 13.43 13.04 12.84 13.70
25.20 23.86 22.27 20.96 20.98 19.28 17.27 15.57 14.67 16.33 15.51 13.63 12.23 6.01 5.55 7.69 6.68 7.11 5.03 7.45 7.90 7.13 6.85 6.18 4.73 10.98 14.02 15.28 12.80 10.43 11.53 12.91
23.35 22.38 20.81 18.74 17.75 16.44 14.84 13.18 14.32 12.76 11.49 10.56 9.41 5.46 5.16 3.83 4.74 3.74 2.95 4.74 2.54 3.28 3.78 3.75 5.04 5.89 13.52 15.82 13.65 12.35 11.50 11.86
22.16 19.92 17.30 17.06 15.78 14.04 12.52 13.28 10.64 8.98 8.88 6.50 0.55 1.74 3.79 -5.40 -0.86 -1.53 -1.06 -1.20 -0.81 -0.54 0.73 3.70 5.62 9.58 12.82 15.61 17.41 18.07 14.29 13.26
19.95 16.96 15.74 13.22 12.11 11.38 11.25 10.28 8.41 3.70 2.06 -3.75 -1.48 0.84 0.72 -5.59 -1.28 -1.04 -2.73 -2.81 -0.95 0.71 0.58 2.07 5.90 7.13 12.94 16.08 17.67 18.57 16.16 16.21
15.13 13.75 11.17 9.37 11.36 7.99 8.72 7.51 0.57 -0.31 0.26 -0.71 -2.32 -2.03 -2.25 1.45 1.91 -0.33 -1.81 -1.60 -0.06 0.22 1.25 4.11 8.63 10.78 12.00 12.28 13.16 16.93 17.90 18.75
15.24 13.50 10.33 8.82 7.14 5.80 6.43 2.30 -0.90 -1.05 0.59 -1.21 -2.89 -4.33 -1.43 0.13 0.45 1.28 2.77 4.03 4.30 7.65 9.82 9.04 8.31 10.62 17.24 18.10 16.56 16.69 18.25 19.40
10.20 8.96 6.57 4.88 3.89 2.83 -1.15 -2.52 -2.88 -0.10 0.70 -1.36 -1.48 -1.52 -0.12 -0.59 -0.78 6.59 10.90 13.36 14.93 16.13 14.50 12.71 15.87 17.41 18.64 18.77 20.06 20.57 19.99 12.86
7.81 5.58 2.46 0.38 0.79 1.83 -0.69 -4.89 -5.63 -5.46 -3.69 -3.46 -1.39 -2.58 -3.17 -3.38 -3.64 -4.72 0.85 9.67 11.00 12.04 13.56 14.24 15.47 16.01 17.24 18.50 17.72 16.07 12.48 1.62
2.93 -0.72 -3.14 -4.47 -2.81 0.92 -4.91 -4.97 -5.12 -10.70 -6.01 -8.17 -5.96 -6.84 -7.38 -6.34 -5.18 -4.11 -4.67 -4.83 -2.15 4.86 8.65 11.74 12.87 14.63 15.60 14.53 9.60 -1.03 1.41 0.61
-4.75 -7.84 -7.16 -8.21 -2.23 -6.21 -11.41 -8.72 -9.62 -10.53 -8.17 -8.88 -8.89 -8.71 -6.53 -5.32 -4.51 -4.61 -4.13 -3.91 -3.73 -2.43 2.42 3.78 9.44 12.40 10.73 10.29 -3.65 -1.68 -1.79 -0.71

GFSFLT1_sfc_wetblb_024.txt.gz
Wetbulb
29.60 28.98 28.59 28.96 29.20 28.53 28.51 27.24 26.83 26.82 26.25 25.75 25.49 25.06 24.22 24.21 23.84 23.63 23.93 24.32 24.09 23.88 23.53 23.28 23.31 23.07 22.41 22.36 22.83 22.43 22.23 23.43
29.76 29.64 28.77 27.92 26.65 26.08 26.08 26.26 25.72 25.78 24.79 24.47 24.00 23.40 23.33 23.22 22.87 22.91 23.16 23.19 23.31 23.65 23.25 22.78 22.29 22.19 21.18 21.05 21.65 21.02 21.44 21.76
30.14 29.20 28.37 27.77 27.04 26.42 25.94 25.57 25.26 24.29 23.98 24.56 23.62 23.53 22.91 22.63 22.90 23.14 22.67 23.34 23.13 23.18 22.66 22.23 21.88 21.76 21.02 20.78 20.73 20.25 20.72 21.48
28.82 28.44 27.58 26.69 26.75 25.90 25.56 25.18 25.48 24.25 23.69 23.55 23.53 22.93 22.61 22.71 23.05 22.99 22.33 21.76 21.63 21.21 20.36 20.14 20.27 20.18 20.29 20.62 21.26 21.38 21.48 21.84
26.44 26.93 26.66 26.53 25.25 24.87 24.62 24.78 25.27 24.07 23.55 23.19 22.81 22.64 22.02 22.15 21.75 21.12 20.61 19.27 18.69 18.86 18.85 18.84 18.86 19.30 20.21 20.60 20.14 19.83 20.34 20.68
27.16 26.69 26.06 24.11 24.03 23.90 24.07 24.18 24.07 23.08 23.10 22.92 23.24 22.03 21.11 20.29 19.30 18.77 18.52 18.09 17.84 17.27 16.80 17.11 17.45 20.11 19.39 19.64 19.12 18.58 18.48 18.98
26.99 26.56 25.52 25.08 24.64 24.96 23.75 23.45 23.51 22.68 22.62 22.22 21.06 20.79 19.41 18.43 17.72 17.28 16.64 15.72 15.50 14.88 14.25 13.54 16.34 19.51 21.22 21.19 18.53 17.66 16.67 15.71
26.74 25.60 25.55 24.72 26.03 23.61 24.19 23.02 21.54 20.88 18.40 18.03 18.14 17.15 16.11 15.52 15.14 14.54 13.36 13.39 12.52 12.35 12.20 11.54 12.11 18.18 20.35 20.28 17.43 16.19 15.33 14.96
26.09 24.52 24.70 24.76 24.08 23.68 23.81 21.73 20.63 18.65 15.80 15.71 15.66 13.42 13.39 12.40 11.62 11.54 11.34 10.52 10.01 9.96 9.67 10.11 11.48 16.91 18.09 18.80 16.21 14.30 14.14 14.13
24.71 24.18 23.07 23.32 23.39 22.22 20.82 20.65 19.32 17.49 16.62 14.83 13.05 10.25 10.27 6.78 8.04 8.84 8.12 7.68 6.63 9.40 7.45 6.61 7.43 13.85 16.58 16.67 13.99 13.56 13.20 13.89
25.09 24.37 23.61 23.02 21.77 20.21 18.84 17.66 16.72 16.62 16.53 13.88 11.62 6.33 5.45 7.87 6.09 6.32 3.37 7.42 7.76 7.27 6.50 5.93 4.39 11.04 14.74 15.97 13.99 11.50 12.37 12.96
23.62 23.38 23.04 20.80 18.89 18.20 16.24 15.66 14.68 13.83 11.78 10.18 9.40 5.28 4.53 3.53 4.03 1.01 -0.10 4.37 0.79 2.82 3.46 3.32 4.82 5.37 13.65 16.73 15.20 13.75 12.96 13.82
23.08 22.43 20.91 18.53 17.65 16.32 15.07 13.81 11.49 9.73 8.90 8.06 3.43 5.39 4.06 -5.39 -3.91 -4.54 -5.09 -3.95 -2.76 -1.91 0.26 3.70 5.68 9.75 13.30 17.05 18.78 19.28 15.14 14.30
21.83 21.01 18.26 15.47 15.60 14.55 12.93 10.72 7.97 5.25 4.60 2.21 3.03 3.44 3.80 -2.73 -0.60 -3.72 -7.19 -5.89 -2.13 0.56 0.76 2.51 6.51 7.57 14.59 17.40 18.44 19.52 17.14 17.64
15.27 15.41 15.07 11.38 13.30 10.38 9.70 8.08 1.55 -1.67 2.82 3.64 2.02 1.95 1.71 3.01 2.54 -5.29 -5.93 -2.85 -0.95 -0.58 0.26 2.55 6.72 10.92 11.49 12.25 15.32 18.71 17.43 18.40
17.09 16.99 15.56 10.72 8.35 5.78 6.27 3.44 0.01 -0.61 3.02 2.57 2.85 1.25 1.38 1.21 -0.24 0.75 1.64 2.26 -0.36 1.75 5.55 9.35 8.44 10.48 17.43 18.22 16.50 17.05 19.01 16.95
13.38 12.44 8.97 7.55 5.53 1.81 1.19 0.73 -0.50 1.51 2.86 2.64 2.09 1.56 1.03 -0.34 -0.76 6.68 11.32 14.16 15.65 17.03 15.77 12.98 15.73 17.39 18.64 19.16 19.95 19.36 16.66 8.33
11.75 8.09 5.81 4.30 3.70 0.05 -3.05 -3.99 -4.15 -2.78 2.47 1.14 0.91 -0.67 -1.63 -3.27 -3.33 -4.73 -0.03 8.53 10.76 12.62 13.45 14.18 15.44 16.08 17.16 17.61 17.32 12.45 9.59 -6.52
6.50 2.39 0.46 -1.30 -3.37 -4.06 -5.50 -7.33 -7.44 -2.61 0.13 -2.18 -1.59 -3.39 -6.04 -5.65 -5.77 -5.90 -6.75 -7.09 -4.61 3.14 7.41 11.23 12.37 14.30 15.55 14.39 8.17 -2.93 -2.19 -12.91
-1.59 -5.19 -4.94 -7.23 -4.09 -6.93 -7.61 -6.40 -4.26 -3.39 -3.10 -3.56 -4.35 -5.93 -6.77 -6.47 -5.57 -6.28 -6.83 -6.47 -6.73 -4.73 0.33 2.15 8.23 10.91 10.42 8.90 -12.19 -6.56 -3.96 -2.61

GFSFLT1_sfc_wetblb_030.txt.gz
Wetbulb
36.54 36.03 35.65 35.45 35.22 35.06 34.91 34.03 33.94 33.92 33.95 33.34 33.15 33.12 32.98 33.04 32.23 31.95 31.39 31.38 31.15 30.97 30.86 30.43 30.21 29.95 30.05 29.73 29.78 29.30 29.94 29.47
37.28 36.89 35.93 35.67 35.03 34.64 34.35 33.66 33.03 33.24 33.11 32.60 32.30 32.40 32.70 32.29 32.03 31.73 31.29 30.97 30.20 29.56 29.17 28.64 28.33 28.28 28.35 27.98 27.91 27.06 27.51 28.44
37.90 37.02 35.49 34.72 34.65 34.43 34.24 33.32 33.44 33.36 32.51 32.21 32.22 32.10 32.12 31.86 31.51 31.19 30.40 29.68 28.96 28.08 27.64 27.12 26.74 26.65 26.19 25.82 26.16 25.59 25.64 26.03
38.22 37.30 36.63 35.48 34.11 33.96 33.96 33.57 33.42 32.68 32.26 31.72 31.54 31.75 31.78 31.04 30.46 29.91 29.02 28.30 27.26 26.50 25.79 25.26 25.04 24.78 25.06 25.31 25.08 25.15 25.16 25.14
38.06 38.20 37.94 36.77 35.08 34.02 33.64 33.81 32.58 31.98 31.65 31.21 31.45 31.48 31.26 30.51 29.46 28.43 27.60 26.66 25.68 25.09 24.34 23.87 23.64 23.67 24.46 24.48 24.72 24.83 24.80 24.58
37.48 37.76 37.99 36.59 35.73 35.18 34.09 33.04 32.55 31.20 31.09 31.24 31.38 31.08 30.37 28.79 27.49 26.01 25.11 25.22 24.42 23.51 22.40 22.30 22.20 23.59 23.69 24.22 24.17 23.49 23.04 23.14
37.73 36.98 36.38 36.48 36.13 35.44 33.76 32.92 32.43 31.32 30.62 31.60 30.49 28.86 27.44 26.72 24.89 23.74 23.04 22.24 21.62 20.72 19.96 19.63 21.04 19.86 21.96 23.05 22.62 22.11 21.21 20.68
36.70 36.10 36.25 36.43 35.36 34.29 34.23 33.39 30.73 29.87 29.75 28.77 28.62 27.02 26.28 24.83 22.86 21.83 21.21 21.05 19.62 19.20 18.76 18.27 18.78 18.38 21.30 21.73 21.28 20.97 20.61 19.45
36.16 35.88 35.17 34.85 33.36 33.83 32.87 31.06 29.38 29.28 28.82 27.72 27.12 26.20 24.57 21.98 20.82 20.82 20.06 18.96 18.51 18.10 17.40 17.24 17.59 17.84 19.31 20.61 20.71 20.08 19.55 19.14
36.71 35.31 33.07 32.16 31.72 29.54 28.13 28.37 28.18 28.05 27.96 26.97 25.95 24.28 22.04 19.60 19.31 19.32 18.44 17.57 16.96 16.78 16.00 14.49 15.00 15.85 18.11 19.15 19.42 18.89 18.31 18.85
31.75 30.83 31.70 31.18 30.18 27.88 27.75 27.10 26.91 27.23 27.38 26.46 25.02 22.36 20.14 19.36 17.77 18.22 16.98 16.20 15.87 15.44 14.91 12.86 11.70 14.22 16.54 18.64 19.24 18.02 18.49 19.24
30.14 30.29 30.51 29.33 26.66 27.25 26.89 25.66 27.90 26.64 24.61 22.74 21.85 19.60 19.13 17.58 16.80 15.00 14.12 13.56 12.58 11.71 12.88 11.50 11.58 12.66 15.98 18.42 18.93 18.70 18.77 19.38
28.68 28.67 29.36 27.53 26.25 26.35 25.17 27.53 24.53 23.21 21.37 19.47 17.28 17.50 15.59 13.40 13.23 11.40 11.31 10.14 10.70 11.03 12.13 13.86 12.68 13.33 16.37 18.39 19.97 20.85 19.26 18.62
28.03 26.95 27.25 25.84 25.40 25.84 27.19 23.04 20.11 19.00 17.49 15.65 14.12 14.61 13.36 11.36 11.22 11.50 11.18 10.94 12.70 12.41 13.15 13.57 13.87 14.87 16.11 17.67 18.87 20.39 19.75 20.26
25.38 24.74 25.26 24.62 23.41 25.63 22.24 20.12 17.08 16.97 14.95 13.18 11.20 11.90 10.66 12.08 12.27 12.14 12.56 12.31 12.40 12.28 12.17 12.79 13.45 14.59 15.82 17.23 18.43 19.88 20.50 20.95
24.45 25.17 25.91 26.04 23.89 22.96 20.15 17.27 16.86 15.94 14.24 14.31 13.54 11.12 12.69 12.06 13.32 12.54 13.46 13.44 12.31 11.82 12.16 12.97 13.67 15.18 18.04 19.67 19.18 20.45 20.87 16.06
23.34 23.34 24.98 23.06 22.38 18.49 16.84 15.78 16.04 15.23 14.28 15.01 14.25 12.89 12.43 12.31 11.87 14.24 15.40 16.10 17.64 19.04 18.61 17.93 18.32 20.11 19.08 19.70 20.39 20.65 17.49 12.71
23.36 23.07 22.98 20.43 18.26 13.77 12.26 12.85 12.91 16.85 15.25 14.18 11.90 12.25 11.45 10.42 10.16 10.06 11.81 12.69 14.36 15.57 16.17 16.83 17.47 17.46 17.73 18.63 19.13 14.96 12.02 7.07
20.49 17.71 16.35 14.30 13.06 10.41 9.45 9.53 8.36 11.26 8.89 12.54 12.09 11.45 10.92 9.89 9.26 8.14 7.08 6.71 7.90 8.82 9.52 11.24 13.61 15.71 15.70 16.74 15.55 8.24 5.86 3.64
10.21 7.95 8.52 8.38 6.12 5.15 4.65 5.92 6.57 8.23 9.30 8.62 8.80 7.89 7.10 7.10 6.24 5.60 5.13 4.29 3.78 4.55 6.64 6.49 8.03 10.54 13.01 11.72 6.41 3.00 1.60 2.21

GFSFLT1_sfc_wetblb_033.txt.gz
Wetbulb
38.58 37.65 37.48 37.32 37.22 37.11 36.77 35.84 36.16 36.19 36.18 35.61 35.47 35.36 35.06 34.86 33.97 33.69 32.55 32.76 32.54 32.32 32.24 31.79 31.52 31.13 31.42 31.01 31.06 29.88 30.57 30.12
38.94 38.28 37.90 37.80 36.97 36.32 36.06 35.63 35.24 35.45 35.15 34.78 34.28 34.38 34.46 34.14 33.75 33.31 32.88 32.48 31.72 31.40 30.89 30.27 29.78 29.42 29.48 29.04 28.44 27.73 28.19 28.89
39.80 38.53 37.29 36.69 36.37 35.99 35.94 35.53 35.20 35.06 34.53 34.09 33.82 33.74 33.54 33.24 33.29 33.40 32.06 32.02 30.73 29.96 29.41 28.79 28.33 28.13 27.44 26.95 27.28 26.33 26.11 26.65
39.78 38.33 37.23 36.64 36.17 35.77 35.73 35.19 35.20 34.71 34.04 33.36 32.98 32.96 33.10 33.04 32.64 32.54 31.38 30.29 28.88 28.57 27.81 27.22 26.90 26.48 26.51 26.37 26.06 26.06 26.03 26.06
39.92 39.23 38.46 37.44 36.68 36.33 36.13 36.23 34.90 34.34 33.30 32.84 32.60 32.89 33.33 32.59 31.56 30.88 30.44 29.06 28.08 27.47 26.63 26.04 25.69 25.29 25.38 25.32 25.49 25.79 25.87 25.92
39.66 40.07 39.80 38.75 37.65 36.72 36.59 36.02 35.35 33.45 32.72 32.63 33.08 33.18 32.94 31.13 30.18 29.07 28.27 27.98 27.27 26.10 25.18 24.76 24.11 24.38 24.81 24.80 24.80 24.42 24.24 24.43
39.84 39.62 39.65 39.45 38.62 37.08 36.28 35.37 34.73 32.87 32.10 32.88 32.13 30.93 30.06 29.00 28.08 26.67 25.72 25.06 24.08 23.01 22.73 22.27 23.32 24.00 22.72 23.75 23.17 23.28 22.68 22.15
39.39 39.03 39.25 40.25 38.52 38.06 37.57 36.10 32.66 31.12 30.42 30.11 30.39 28.74 28.15 27.87 26.28 24.92 24.27 24.15 22.91 22.29 21.90 20.94 21.60 22.87 22.33 23.61 22.24 21.80 21.90 21.72
39.90 40.00 39.48 40.28 38.95 38.78 36.86 34.35 31.35 30.51 29.97 29.31 28.80 27.55 27.34 26.04 24.50 24.09 23.91 22.57 21.52 21.20 21.01 20.41 20.54 22.10 21.95 22.25 21.07 21.23 21.37 21.08
40.43 40.31 39.17 37.06 36.10 33.38 31.76 31.91 30.28 29.46 29.50 28.52 28.03 26.96 26.01 23.91 23.13 23.43 22.65 21.60 20.94 20.70 19.33 18.35 18.57 20.89 20.90 20.69 19.98 20.19 20.35 20.86
36.84 35.23 34.44 33.80 32.24 29.34 28.91 28.56 28.31 29.22 29.53 29.04 28.17 26.61 25.03 23.98 22.59 23.15 22.22 21.41 20.63 19.63 19.13 17.50 15.97 18.73 20.08 20.15 19.42 18.37 19.41 20.55
31.90 31.71 32.55 31.61 28.71 28.20 28.18 27.49 29.21 28.33 27.31 26.69 26.49 25.30 24.81 23.53 22.84 20.97 19.49 18.79 17.41 16.77 17.01 16.21 15.45 14.76 19.25 20.64 19.07 18.92 19.02 19.45
30.19 30.33 30.98 28.68 28.20 27.70 27.12 28.62 27.34 26.12 24.64 23.28 22.67 23.02 22.38 20.04 19.24 18.08 17.09 15.41 14.33 14.30 14.77 16.32 15.53 15.92 17.52 20.29 21.53 21.66 18.93 18.44
29.46 28.33 28.66 27.50 27.58 26.91 27.67 25.97 23.59 22.52 20.95 20.26 19.42 20.33 19.14 17.13 16.60 14.96 14.85 14.99 15.27 15.50 15.39 16.60 17.68 15.95 18.88 20.16 21.09 21.35 19.68 20.21
26.90 25.81 25.34 25.75 25.67 27.89 25.83 23.52 20.92 20.56 19.12 18.11 16.32 17.29 15.93 16.93 17.24 16.12 16.34 15.06 15.15 16.05 15.89 16.47 16.52 15.95 17.03 17.10 17.72 20.05 20.77 21.46
25.75 25.72 26.31 26.25 25.57 25.25 23.06 20.88 20.71 20.49 18.58 18.75 17.35 15.56 15.62 15.70 16.59 15.91 17.28 18.24 16.49 16.68 16.50 14.94 14.55 17.16 18.91 18.63 18.85 19.09 20.34 20.72
24.59 24.08 25.55 25.59 24.54 23.47 21.72 19.92 20.19 19.73 18.66 19.14 18.22 16.56 16.77 16.07 14.74 19.42 19.73 19.27 19.48 19.39 16.63 16.89 19.37 20.81 21.50 22.51 21.63 22.10 19.91 13.24
24.18 23.90 23.18 22.25 21.09 17.69 16.62 16.46 16.62 20.96 20.14 19.30 16.70 17.19 15.68 14.90 14.55 13.86 16.91 19.35 19.99 20.39 20.84 20.88 20.38 20.49 20.77 20.62 20.60 19.58 13.02 7.73
22.00 18.70 18.40 16.18 14.17 13.57 13.91 13.74 12.06 17.22 12.44 17.64 15.61 16.22 15.45 14.58 14.03 13.36 11.96 11.40 12.06 15.38 15.22 15.80 16.53 17.07 17.98 19.24 18.59 12.52 9.16 4.62
13.54 10.76 10.36 10.10 6.63 8.21 8.17 9.81 11.21 13.41 13.04 12.78 13.31 12.40 11.00 11.21 10.46 9.66 8.67 8.04 7.88 8.32 9.60 10.99 13.25 14.24 15.18 16.66 10.49 6.69 3.78 3.01